Regional Weather Roundup
Issued by NWS

Home | Current Version | Previous Version | Text Only | Print | Product List | Glossary Off
Versions: 1 2 3 4 5 6 7 8 9 10 11 12 13 14 15 16 17 18 19 20 21 22 23 24 25 26 27 28 29 30 31 32 33 34 35 36 37 38 39 40 41 42 43 44 45 46 47 48 49 50

000
ASUS45 KTFX 260819
RWRMT
MONTANA HOURLY WEATHER ROUNDUP
NATIONAL WEATHER SERVICE GREAT FALLS MT
119 AM MST WED NOV 26 2014

NOTE: "FAIR" INDICATES FEW OR NO CLOUDS BELOW 12000 FEET WITH NO
SIGNIFICANT WEATHER AND/OR OBSTRUCTIONS TO VISIBILITY.

* THESE STATIONS ARE NOT UNDER NWS QUALITY CONTROL. THEY DO NOT
   REPORT WEATHER SUCH AS PRECIPITATION OR FOG.

MTZ001>007-043-260900-
WEST OF THE DIVIDE
CITY           SKY/WX    TMP DP  RH WIND       PRES   REMARKS
KALISPELL      LGT SNOW  32  32 100 CALM      30.15S VSB 1 1/4
MISSOULA       LGT SNOW  30  30 100 CALM      30.15F VSB 1
BUTTE          LGT SNOW  27  25  92 CALM      30.07F VSB 1 1/4
MULLAN PASS    LGT SNOW  30  28  92 SW9       30.05S VSB 1 1/4 WCI  22
* ESSEX        N/A       30  28  92 SE2        N/A
* EUREKA APT   CLOUDY    34  30  85 CALM      30.18S
* LIBBY APT    PTCLDY    32  30  92 CALM      30.18S VSB 1 3/4
* LINCOLN      N/A       28  27  96 N/A        N/A
* LOOKOUT PASS N/A       29  29 100 S2         N/A
* POLSON       N/A       30  30 100 N/A        N/A
* RONAN APT    CLOUDY    32  30  92 N/A        N/A
* SEELEY LAKE  N/A       29  28  96 N/A        N/A
* THOMP F APT  MOCLDY    31  29  92 NE2        N/A
* YAAK HILL    N/A       32  30  92 N/A        N/A
$$

MTZ008-052>055-260900-
SOUTHWEST MONTANA
CITY           SKY/WX    TMP DP  RH WIND       PRES   REMARKS
BOZEMAN        LGT SNOW  28  27  96 NW5       30.13F VSB 1 1/4 WCI  22
DILLON         CLOUDY    28  27  96 NE6       30.08S WCI  21
* W YELLOWSTON CLEAR     32  31  96 SW5G12     N/A   WCI  27
* ENNIS APT    PTCLDY    28  28 100 N/A        N/A
* THREE FORKS  CLOUDY    30   5  34 N/A        N/A
* BOULDER HILL N/A       26  23  88 S4         N/A
* MONIDA PASS  N/A       33  33 100 VRB7       N/A   WCI  27
* RAYNOLDS PAS N/A       34  13  42 SE6G12     N/A   WCI  29
* WHITEHALL    N/A       30  29  96 E2         N/A
* WISE RIVER   N/A       28  27  96 SE3        N/A
$$

MTZ009>010-012-014-046-048-049-054-260900-
EAST SLOPES AND CENTRAL MONTANA
CITY           SKY/WX    TMP DP  RH WIND       PRES   REMARKS
CUT BANK       LGT SNOW  28  25  89 E3        30.12S
GREAT FALLS    LGT SNOW  28  28 100 SE6       30.12F VSB 2    WCI  21
HELENA         LGT SNOW  30  28  92 CALM      30.12F VSB 2 1/2
MALMSTROM AFB  FRZ RAIN  28  28 100 SE6       30.16F WCI  21
* CONRAD       CLOUDY    28  25  89 CALM       N/A
* DEARBORN     N/A       31  29  92 S2         N/A
* EAST GLACIER N/A       23  22  96 NW2        N/A
* MONARCH      N/A       22  18  85 E5         N/A   WCI  15
* PENDROY      N/A       29  26  89 S7         N/A   WCI  22
* SAINT MARY   N/A       30  23  75 S6G12      N/A   WCI  24
* SWEET GRASS  N/A       28  23  81 SW5        N/A   WCI  22
* WHITE SULPH  N/A       25  24  96 S6         N/A   WCI  18
$$

MTZ011-013-016-021-035-040-045-047-050-051-260900-
NORTH CENTRAL MONTANA
CITY           SKY/WX    TMP DP  RH WIND       PRES   REMARKS
HAVRE          CLOUDY    28  25  89 NW3       30.19R
LEWISTOWN      LGT SNOW  28  25  89 SW10      30.14F WCI  19
* N BAR RANCH  CLOUDY    27  21  78 W7G15     30.12F WCI  19
* CHINOOK      CLOUDY    28  25  89 NW3       30.19S
* FORT BENTON  CLOUDY    30  27  89 CALM      30.19F
* CHESTER      N/A       28  25  89 SE1        N/A
* DENTON       N/A       29  24  82 SW9        N/A   WCI  21
* JUDITH GAP   N/A       24  23  96 NW4        N/A
* LOMA         N/A       31  26  82 SW2        N/A
$$

MTZ017>020-022>027-061-062-260900-
NORTHEAST MONTANA
CITY           SKY/WX    TMP DP  RH WIND       PRES   REMARKS
GLASGOW        CLOUDY    21  16  81 NE6       30.21S WCI  13
GLENDIVE       CLOUDY    23  19  85 NW6       30.21R WCI  16
JORDAN         CLOUDY    25  21  85 CALM      30.16F
SIDNEY         CLOUDY    21  16  81 CALM      30.25R
WOLF POINT     LGT SNOW  21  18  88 CALM      30.24S
* BEAVER HILL  N/A       22  20  92 NW6        N/A   WCI  14
* CIRCLE       N/A       24  21  88 VRB2G7     N/A
* LINDSAY DVD  N/A       20  18  92 NW4        N/A
* NAVAJO       N/A       13  10  88 NW5        N/A   WCI   5
* PLENTYWOOD A MOCLDY    12   9  88 N5        30.22R VSB 1 1/4 WCI   4
* POPLAR APT   CLOUDY    21  18  88 N/A       30.23S VSB 3
* SACO         N/A       23  19  85 E1         N/A
$$

MTZ028>042-056>058-260900-
SOUTHCENTRAL AND SOUTHEAST MONTANA
CITY           SKY/WX    TMP DP  RH WIND       PRES   REMARKS
BAKER          CLOUDY    25  21  85 NW7       30.16S WCI  17
BILLINGS       LGT SNOW  28  27  96 SW9       30.18S VSB 1 1/2 WCI  19
LIVINGSTON     LGT SNOW  27  25  92 E8        30.13F VSB 1 1/2 WCI  19
MILES CITY     CLOUDY    28  23  81 CALM      30.18F
* BIG TIMBER A CLOUDY    27  25  92 CALM      30.15F VSB 3/4
* FORSYTH APT  CLOUDY    28  25  89 CALM      30.18F
* LAUREL APT   CLOUDY    28  21  75 N/A        N/A
* ALZADA       N/A       24  22  92 NW7        N/A   WCI  16
* HYSHAM       N/A       27  22  81 VRB1       N/A
* LAME DEER    N/A       24  22  92 W6         N/A   WCI  17
* REED POINT   N/A       28  28 100 W2         N/A
* ROSCOE HILL  N/A       22  19  88 N/A        N/A
$$

REGIONAL REPORTS...DAKOTAS
CITY           SKY/WX    TMP DP  RH WIND       PRES   REMARKS
WILLISTON      CLOUDY    16   9  74 CALM      30.24R
DICKINSON      CLOUDY    19  16  88 NW8       30.15R WCI   9
BEACH          CLOUDY    21  21 100 NW5       30.18R WCI  14
CROSBY         LGT SNOW  10   9  96 NW10      30.25R VSB 2 1/2 WCI  -4
TIOGA          CLOUDY     9   9 100 CALM      30.23R
BISMARCK       CLOUDY    14   9  80 N12       30.20R
GRAND FORKS    PTCLDY     7   1  76 N16       30.22R WCI -11
FARGO          CLOUDY    16  10  77 N21G30    30.12R WCI  -1
BUFFALO SD     MOCLDY    25  19  78 NW16      30.07R WCI  12
RAPID CITY     CLOUDY    27  21  78 N23G30    30.12R WCI  13
$$

REGIONAL REPORTS...WYOMING/IDAHO/WASHINGTON
CITY           SKY/WX    TMP DP  RH WIND       PRES   REMARKS
GILLETTE       CLOUDY    27  23  85 NW12      30.13R WCI  16
SHERIDAN       CLOUDY    28  21  75 W12       30.16R WCI  18
CODY           CLOUDY    25  23  92 CALM      30.14S
YELLOWSTONE LA PTCLDY    28  28 100 CALM      30.07F
SALMON         CLOUDY    34  30  85 CALM      30.14S VSB 1
MULLAN PASS    LGT SNOW  30  28  92 SW9       30.05S VSB 1 1/4 WCI  22
SAND POINT     N/A       32  32 100 CALM      30.17S
SPOKANE        FOG       34  34 100 N3        30.16R VSB 1/2
$$

REGIONAL REPORTS...ALBERTA
CITY           SKY/WX    TMP DP  RH WIND       PRES   REMARKS
CALGARY        FOG       23  21  92 E5        30.11S WCI  16
LETHBRIDGE     CLOUDY    28  27  96 E6        30.15R WCI  21
MEDICINE HAT   CLOUDY    25  23  92 NE6       30.20S WCI  18
EDMONTON       LGT SNOW  16  12  84 E10       30.18S WCI   4
WATERTON GATE  N/A       25  21  85 NE2        N/A
CARDSTON       N/A       28  23  81 S5         N/A   WCI  22
MILK RIVER     N/A       27  25  92 SE2        N/A
$$

REGIONAL REPORTS...SASKATCHEWAN
CITY           SKY/WX    TMP DP  RH WIND       PRES   REMARKS
SWIFT CURRENT  LGT SNOW  12   9  88 E6        30.18S WCI   2
REGINA         LGT SNOW   5   1  83 N6        30.27R WCI  -6
VAL MARIE      N/A       23  19  85 W3         N/A
ASSINIBOIA     N/A        9   5  84 N6         N/A   WCI  -1

$$



USA.gov is the U.S. government's official web portal to all federal, state and local government web resources and services.